Regional Weather Roundup
Issued by NWS Sioux Falls, SD

Home | Current Version | Previous Version | Text Only | Print | Product List | Glossary Off
Versions: 1 2 3 4 5 6 7 8 9 10 11 12 13 14 15 16 17 18 19 20 21 22 23 24 25 26 27 28 29 30 31 32 33 34 35 36 37 38 39 40 41 42 43 44 45 46 47 48 49 50

000
ASUS43 KFSD 191410
RWRFSD

WEATHER ROUNDUP FOR SE SOUTH DAKOTA/SW MINNESOTA/NW IOWA
NATIONAL WEATHER SERVICE SIOUX FALLS SD
800 AM CST THU JAN 19 2017

NOTE: "FAIR" INDICATES FEW OR NO CLOUDS BELOW 12,000 FEET WITH NO
SIGNIFICANT WEATHER AND OR OBSTRUCTIONS TO VISIBILITY.


SDZ038>040-050-052>070-191500-
SOUTHEAST SOUTH DAKOTA

CITY           SKY/WX    TMP DP  RH WIND       PRES   REMARKS
BROOKINGS      CLEAR     32  30  92 S12       29.69R WCI  23
CHAMBERLAIN    CLOUDY    32  31  98 SE8       29.58F WCI  25
HURON          CLOUDY    33  32  96 S12       29.63S WCI  24
MADISON          N/A     32  32 100 S12         N/A  WCI  23
MITCHELL       CLEAR     33  32  96 SE13      29.67F WCI  24
SIOUX FALLS    PTCLDY    35  33  92 S7        29.71F WCI  29
WINNER         FAIR      34  28  79 S16       29.56F WCI  24
YANKTON        CLOUDY    36  34  93 SE6       29.71S
$$

MNZ071-072-080-081-089-090-097-098-191500-
SOUTHWEST MINNESOTA

CITY           SKY/WX    TMP DP  RH WIND       PRES   REMARKS
FAIRMONT       MIX PCPN  32  31  96 S14       29.80S VSB 1/4 WCI  22
JACKSON        CLEAR     32  32 100 S9        29.77S FOG     WCI  24
LUVERNE        CLEAR     30  28  93 CALM      29.74F FOG
MARSHALL       CLEAR     37  33  85 S15       29.71S
MONTEVIDEO     CLEAR     32  32 100 S7        29.72S WCI  26
PIPESTONE      CLEAR     34  32  93 S12       29.69F WCI  25
REDWOOD FALLS  CLEAR     33  29  85 S13       29.74F WCI  24
TRACY          CLEAR     37  34  87 S14       29.71F
WINDOM           N/A     34  32  93 S6        29.75F WCI  29
WORTHINGTON    CLEAR     35  32  88 S9        29.75F WCI  28
$$

IAZ001>003-012>014-020>022-031-032-NEZ013-014-SDZ071-191500-
NORTHWEST IOWA

CITY           SKY/WX    TMP DP  RH WIND       PRES   REMARKS
CHEROKEE       CLEAR     31  31 100 CALM      29.77F FOG
DENISON        CLOUDY    34  34 100 CALM      29.78S FOG
ESTHERVILLE    FOG       31  31 100 S8        29.78F VSB 1/4 WCI  23
LE MARS        PTCLDY    34  32  93 SE3       29.77S
ORANGE CITY    CLEAR     34  34 100 S6        29.75S WCI  29
SHELDON        MOCLDY    34  34 100 S7        29.74F WCI  28
SIOUX CITY     CLOUDY    34  33  96 E8        29.76S FOG     WCI  27
SPENCER        CLOUDY    33  32  96 S7        29.77F FOG     WCI  27
STORM LAKE     FOG       30  30 100 SE7G13    29.78F VSB<1/4 WCI  23
$$

ABBREVIATIONS USED IN REMARKS
   TC - TEMPERATURE IN CELSIUS
  WCI - WIND CHILL INDEX
   HX - HEAT INDEX
  VSB - VISIBILITY





USA.gov is the U.S. government's official web portal to all federal, state and local government web resources and services.